Iron Mountain, MI

1:17 AM CST on December 18, 2017 (GMT -0600)
Ford

Weather History for KIMT - December, 2013

Change the Weather History Date:

Thursday, December 5, 2013

  Actual Average Record
Temperature  
Mean Temperature 20 °F -  
Max Temperature 34 °F 30 °F 57 °F (2001)
Min Temperature 5 °F 16 °F -5 °F (1984)
Degree Days  
Heating Degree Days 44    
Moisture  
Dew Point 10 °F    
Average Humidity 69    
Maximum Humidity 93    
Minimum Humidity 58    
Precipitation  
Precipitation 0.00 in - - ()
Sea Level Pressure  
Sea Level Pressure 29.77 in    
Wind  
Wind Speed 14 mph (West)    
Max Wind Speed 21 mph    
Max Gust Speed 32 mph    
Visibility 10 miles    
Events Snow    
Averages and records for this station are not official NWS values.
T = Trace of Precipitation, MM = Missing Value Source: NWS Daily Summary

Daily Weather History Graph

Daily Weather History Graph

Search for Another Location

Airport or City:

Trip Planner

Search our weather history database for the weather conditions in past years. The results will help you decide how hot, cold, wet, or windy it might be!

Date:

Astronomy

Dec. 05, 2013 Rise Set
Actual Time 7:18 AM CST 4:08 PM CST
Civil Twilight 6:43 AM CST 4:42 PM CST
Nautical Twilight 6:06 AM CST 5:19 PM CST
Astronomical Twilight 5:30 AM CST 5:55 PM CST
Moon 9:33 AM CST (12/5) 7:33 PM CST (12/5)
Length of Visible Light 9h 58m
Length of Day
8h 50m
Waxing Crescent, 11% of the Moon is Illuminated
Dec 5
Waxing Crescent
Dec 9
First Quarter
Dec 17
Full
Dec 25
Last Quarter
Jan 1
New

Hourly Weather History & Observations

Time (CST) Temp. Windchill Dew Point Humidity Pressure Visibility Wind Dir Wind Speed Gust Speed Precip Events Conditions
12:43 AM 33.8 °F 25.8 °F 32.0 °F 93% 29.36 in 10.0 mi WSW 10.4 mph - N/A   Mostly Cloudy
12:54 AM 34.0 °F 24.6 °F 30.9 °F 89% 29.40 in 10.0 mi WSW 13.8 mph 20.7 mph N/A   Overcast
1:36 AM 33.8 °F 24.8 °F 30.2 °F 87% 29.37 in 8.0 mi WSW 12.7 mph 17.3 mph 0.00 in Snow Light Snow
1:54 AM 34.0 °F 23.8 °F 30.0 °F 85% 29.44 in 10.0 mi WSW 16.1 mph 24.2 mph 0.00 in   Overcast
2:54 AM 32.0 °F 21.2 °F 27.0 °F 82% 29.47 in 10.0 mi WSW 16.1 mph 31.1 mph N/A   Overcast
3:39 AM 30.2 °F 18.1 °F 23.0 °F 75% 29.43 in 10.0 mi West 18.4 mph 28.8 mph N/A   Overcast
3:54 AM 30.0 °F 19.1 °F 21.9 °F 72% 29.48 in 10.0 mi West 15.0 mph 27.6 mph N/A   Overcast
4:54 AM 28.0 °F 16.1 °F 21.0 °F 75% 29.54 in 10.0 mi WSW 16.1 mph 31.1 mph N/A   Overcast
5:54 AM 26.1 °F 14.0 °F 17.1 °F 69% 29.57 in 10.0 mi West 15.0 mph 29.9 mph N/A   Overcast
7:54 AM 19.0 °F 2.7 °F 10.0 °F 68% 29.67 in 2.5 mi West 20.7 mph 28.8 mph 0.00 in Snow Light Snow
8:13 AM 17.6 °F 1.3 °F 8.6 °F 68% 29.64 in 8.0 mi West 19.6 mph 28.8 mph 0.00 in Snow Light Snow
8:54 AM 16.0 °F -0.4 °F 6.1 °F 65% 29.72 in 10.0 mi West 18.4 mph 32.2 mph 0.00 in   Overcast
9:54 AM 16.0 °F 0.6 °F 6.1 °F 65% 29.75 in 10.0 mi West 16.1 mph 24.2 mph 0.00 in   Overcast
10:54 AM 16.0 °F -0.4 °F 7.0 °F 68% 29.78 in 9.0 mi WSW 18.4 mph 25.3 mph 0.00 in Snow Light Snow
11:54 AM 15.1 °F -0.6 °F 5.0 °F 64% 29.79 in 10.0 mi WSW 16.1 mph 27.6 mph 0.00 in   Overcast
12:29 PM 15.8 °F 1.4 °F 3.2 °F 58% 29.75 in 10.0 mi West 13.8 mph 23.0 mph N/A   Scattered Clouds
12:54 PM 15.1 °F 1.8 °F 3.9 °F 61% 29.82 in 10.0 mi West 11.5 mph 26.5 mph N/A   Clear
1:54 PM 16.0 °F -0.9 °F 3.9 °F 59% 29.85 in 10.0 mi West 19.6 mph 25.3 mph N/A   Scattered Clouds
2:54 PM 15.1 °F 0.5 °F 3.0 °F 59% 29.88 in 10.0 mi West 13.8 mph 28.8 mph N/A   Clear
3:54 PM 12.9 °F -2.2 °F 1.9 °F 62% 29.93 in 10.0 mi West 13.8 mph 21.9 mph N/A   Scattered Clouds
4:01 PM 12.2 °F -3.1 °F 1.4 °F 62% 29.87 in 10.0 mi WSW 13.8 mph 21.9 mph N/A   Mostly Cloudy
4:54 PM 10.9 °F -5.4 °F 1.9 °F 67% 29.96 in 10.0 mi WSW 15.0 mph 21.9 mph N/A   Mostly Cloudy
5:54 PM 10.9 °F -3.4 °F 1.9 °F 67% 29.99 in 10.0 mi West 11.5 mph - N/A   Overcast
6:54 PM 10.9 °F -1.8 °F 1.9 °F 67% 30.04 in 10.0 mi West 9.2 mph - N/A   Overcast
7:54 PM 10.0 °F -4.5 °F 1.0 °F 67% 30.09 in 10.0 mi West 11.5 mph - N/A   Overcast
8:54 PM 9.0 °F -7.3 °F -0.0 °F 67% 30.13 in 9.0 mi West 13.8 mph 21.9 mph 0.00 in Snow Light Snow
9:37 PM 8.6 °F -7.7 °F -2.2 °F 62% 30.05 in 10.0 mi West 13.8 mph 19.6 mph 0.00 in   Scattered Clouds
9:54 PM 8.1 °F -7.7 °F -2.0 °F 64% 30.14 in 10.0 mi West 12.7 mph 21.9 mph 0.00 in   Scattered Clouds
10:54 PM 7.0 °F -6.6 °F -2.9 °F 64% 30.14 in 10.0 mi West 9.2 mph 20.7 mph N/A   Clear
11:54 PM 5.0 °F -6.9 °F -2.9 °F 70% 30.16 in 10.0 mi WNW 6.9 mph - N/A   Clear